Time,TemperatureF,DewpointF,PressureIn,WindDirection,WindDirectionDegrees,WindSpeedMPH,WindSpeedGustMPH,Humidity,HourlyPrecipIn,Conditions,Clouds,dailyrainin,SoftwareType,DateUTC
2013-09-09 00:01:00,42.7,40.0,29.65,NW,315,0.0,0.0,90,0.00,,,0.00,Rainwise IP-100,2013-09-09 04:01:00,
2013-09-09 00:02:00,42.7,40.0,29.65,NW,315,0.0,0.0,90,0.00,,,0.00,Rainwise IP-100,2013-09-09 04:02:00,
2013-09-09 00:05:00,42.8,40.0,29.65,NW,315,0.0,0.0,90,0.00,,,0.00,Rainwise IP-100,2013-09-09 04:05:00,
2013-09-09 00:10:00,42.6,40.0,29.65,NW,315,0.0,0.0,90,0.00,,,0.00,Rainwise IP-100,2013-09-09 04:10:00,
2013-09-09 00:15:00,42.4,40.0,29.66,NNW,337,0.0,0.0,91,0.00,,,0.00,Rainwise IP-100,2013-09-09 04:15:00,
2013-09-09 00:20:00,42.2,40.0,29.66,NNW,337,1.2,1.2,91,0.00,,,0.00,Rainwise IP-100,2013-09-09 04:20:00,
2013-09-09 00:25:00,42.0,40.0,29.66,NNW,337,1.6,2.0,92,0.00,,,0.00,Rainwise IP-100,2013-09-09 04:25:00,
2013-09-09 00:30:00,41.8,40.0,29.67,NNW,337,0.0,1.0,93,0.00,,,0.00,Rainwise IP-100,2013-09-09 04:30:00,
2013-09-09 00:35:00,41.5,40.0,29.67,NNW,337,2.1,2.1,93,0.00,,,0.00,Rainwise IP-100,2013-09-09 04:35:00,
2013-09-09 00:40:00,41.7,40.0,29.67,WNW,292,2.3,5.0,93,0.00,,,0.00,Rainwise IP-100,2013-09-09 04:40:00,
2013-09-09 00:45:00,42.1,40.0,29.67,WNW,292,1.2,3.0,92,0.00,,,0.00,Rainwise IP-100,2013-09-09 04:45:00,
2013-09-09 00:50:00,42.1,40.0,29.67,WNW,292,0.0,1.0,92,0.00,,,0.00,Rainwise IP-100,2013-09-09 04:50:00,
2013-09-09 00:55:00,41.9,40.0,29.67,WSW,247,1.4,1.4,92,0.00,,,0.00,Rainwise IP-100,2013-09-09 04:55:00,
2013-09-09 01:00:00,41.8,40.0,29.67,WSW,247,0.0,2.0,92,0.00,,,0.00,Rainwise IP-100,2013-09-09 05:00:00,
2013-09-09 01:05:00,41.7,40.0,29.67,WSW,247,0.0,0.0,93,0.00,,,0.00,Rainwise IP-100,2013-09-09 05:05:00,
2013-09-09 01:10:00,41.5,40.0,29.67,WSW,247,0.0,1.0,93,0.00,,,0.00,Rainwise IP-100,2013-09-09 05:10:00,
2013-09-09 01:16:00,41.3,39.0,29.67,WSW,247,0.0,0.0,93,0.00,,,0.00,Rainwise IP-100,2013-09-09 05:16:00,
2013-09-09 01:21:00,40.9,39.0,29.67,WSW,247,0.0,0.0,93,0.00,,,0.00,Rainwise IP-100,2013-09-09 05:21:00,
2013-09-09 01:26:00,40.7,39.0,29.67,NNW,337,2.1,0.0,94,0.00,,,0.00,Rainwise IP-100,2013-09-09 05:26:00,
2013-09-09 01:31:00,40.5,39.0,29.67,NNW,337,0.0,2.0,94,0.00,,,0.00,Rainwise IP-100,2013-09-09 05:31:00,
2013-09-09 01:36:00,40.6,40.0,29.67,NNW,337,0.0,0.0,95,0.00,,,0.00,Rainwise IP-100,2013-09-09 05:36:00,
2013-09-09 01:41:00,40.7,40.0,29.67,NNE,22,0.0,2.0,95,0.00,,,0.00,Rainwise IP-100,2013-09-09 05:41:00,
2013-09-09 01:46:00,40.5,40.0,29.67,NNW,337,0.0,3.0,95,0.00,,,0.00,Rainwise IP-100,2013-09-09 05:46:00,
2013-09-09 01:51:00,40.4,39.0,29.67,NNW,337,0.0,0.0,95,0.00,,,0.00,Rainwise IP-100,2013-09-09 05:51:00,
2013-09-09 01:56:00,40.3,39.0,29.67,NNW,337,0.0,1.0,95,0.00,,,0.00,Rainwise IP-100,2013-09-09 05:56:00,
2013-09-09 02:01:00,40.2,39.0,29.67,NNW,337,0.0,0.0,95,0.00,,,0.00,Rainwise IP-100,2013-09-09 06:01:00,
2013-09-09 02:06:00,40.0,39.0,29.68,NNW,337,0.0,0.0,95,0.00,,,0.00,Rainwise IP-100,2013-09-09 06:06:00,
2013-09-09 02:11:00,39.8,39.0,29.68,NNW,337,1.2,0.0,95,0.00,,,0.00,Rainwise IP-100,2013-09-09 06:11:00,
2013-09-09 02:16:00,39.7,39.0,29.68,North,360,3.0,3.0,95,0.00,,,0.00,Rainwise IP-100,2013-09-09 06:16:00,
2013-09-09 02:21:00,39.6,39.0,29.68,NNE,22,1.4,4.0,95,0.00,,,0.00,Rainwise IP-100,2013-09-09 06:21:00,
2013-09-09 02:26:00,39.7,39.0,29.68,NNE,22,0.0,3.0,95,0.00,,,0.00,Rainwise IP-100,2013-09-09 06:26:00,
2013-09-09 02:32:00,39.7,39.0,29.68,NNE,22,0.0,2.0,95,0.00,,,0.00,Rainwise IP-100,2013-09-09 06:32:00,
2013-09-09 02:37:00,39.5,39.0,29.68,NW,315,0.0,2.0,95,0.00,,,0.00,Rainwise IP-100,2013-09-09 06:37:00,
2013-09-09 02:42:00,39.6,39.0,29.69,North,360,0.0,3.0,95,0.00,,,0.00,Rainwise IP-100,2013-09-09 06:42:00,
2013-09-09 02:47:00,39.6,39.0,29.68,NNW,337,0.0,0.0,95,0.00,,,0.00,Rainwise IP-100,2013-09-09 06:47:00,
2013-09-09 02:52:00,40.0,39.0,29.69,West,270,0.0,1.0,95,0.00,,,0.00,Rainwise IP-100,2013-09-09 06:52:00,
2013-09-09 02:57:00,40.3,39.0,29.69,West,270,0.0,0.0,94,0.00,,,0.00,Rainwise IP-100,2013-09-09 06:57:00,
2013-09-09 03:02:00,39.9,39.0,29.69,NNW,337,0.0,2.0,94,0.00,,,0.00,Rainwise IP-100,2013-09-09 07:02:00,
2013-09-09 03:07:00,39.4,38.0,29.69,NNW,337,0.0,1.0,94,0.00,,,0.00,Rainwise IP-100,2013-09-09 07:07:00,
2013-09-09 03:12:00,39.2,38.0,29.70,NNW,337,0.0,0.0,95,0.00,,,0.00,Rainwise IP-100,2013-09-09 07:12:00,
2013-09-09 03:17:00,39.1,38.0,29.70,NNW,337,0.0,0.0,95,0.00,,,0.00,Rainwise IP-100,2013-09-09 07:17:00,
2013-09-09 03:22:00,38.7,38.0,29.70,NNW,337,0.0,0.0,95,0.00,,,0.00,Rainwise IP-100,2013-09-09 07:22:00,
2013-09-09 03:27:00,38.7,38.0,29.70,NNW,337,0.0,0.0,96,0.00,,,0.00,Rainwise IP-100,2013-09-09 07:27:00,
2013-09-09 03:32:00,39.0,38.0,29.70,NNW,337,0.0,0.0,96,0.00,,,0.00,Rainwise IP-100,2013-09-09 07:32:00,
2013-09-09 03:37:00,38.9,38.0,29.70,NNW,337,2.1,2.1,95,0.00,,,0.00,Rainwise IP-100,2013-09-09 07:37:00,
2013-09-09 03:42:00,38.7,38.0,29.70,NNW,337,2.6,3.0,95,0.00,,,0.00,Rainwise IP-100,2013-09-09 07:42:00,
2013-09-09 03:48:00,38.6,38.0,29.70,NNW,337,1.4,3.0,96,0.00,,,0.00,Rainwise IP-100,2013-09-09 07:48:00,
2013-09-09 03:53:00,38.9,38.0,29.70,NW,315,0.0,3.0,96,0.00,,,0.00,Rainwise IP-100,2013-09-09 07:53:00,
2013-09-09 03:58:00,39.1,38.0,29.70,NW,315,0.0,1.0,96,0.00,,,0.00,Rainwise IP-100,2013-09-09 07:58:00,
2013-09-09 04:03:00,39.2,38.0,29.70,NW,315,0.0,1.0,96,0.00,,,0.00,Rainwise IP-100,2013-09-09 08:03:00,
2013-09-09 04:08:00,39.3,38.0,29.70,WNW,292,0.0,1.0,96,0.00,,,0.00,Rainwise IP-100,2013-09-09 08:08:00,
2013-09-09 04:13:00,39.5,39.0,29.71,West,270,1.4,1.4,95,0.00,,,0.00,Rainwise IP-100,2013-09-09 08:13:00,
2013-09-09 04:18:00,39.8,39.0,29.71,West,270,0.0,2.0,95,0.00,,,0.00,Rainwise IP-100,2013-09-09 08:18:00,
2013-09-09 04:23:00,39.9,39.0,29.71,West,270,0.0,1.0,95,0.00,,,0.00,Rainwise IP-100,2013-09-09 08:23:00,
2013-09-09 04:28:00,39.5,39.0,29.71,West,270,0.0,1.0,95,0.00,,,0.00,Rainwise IP-100,2013-09-09 08:28:00,
2013-09-09 04:33:00,39.3,38.0,29.71,WSW,247,0.0,0.0,95,0.00,,,0.00,Rainwise IP-100,2013-09-09 08:33:00,
2013-09-09 04:38:00,39.3,38.0,29.71,WSW,247,0.0,1.0,95,0.00,,,0.00,Rainwise IP-100,2013-09-09 08:38:00,
2013-09-09 04:43:00,39.5,39.0,29.71,WSW,247,0.0,0.0,96,0.00,,,0.00,Rainwise IP-100,2013-09-09 08:43:00,
2013-09-09 04:48:00,39.4,38.0,29.71,NNW,337,3.0,0.0,96,0.00,,,0.00,Rainwise IP-100,2013-09-09 08:48:00,
2013-09-09 04:53:00,39.3,38.0,29.72,NW,315,1.4,3.0,96,0.00,,,0.00,Rainwise IP-100,2013-09-09 08:53:00,
2013-09-09 04:58:00,39.4,38.0,29.72,NNW,337,2.3,3.0,97,0.00,,,0.00,Rainwise IP-100,2013-09-09 08:58:00,
2013-09-09 05:04:00,39.6,40.0,29.72,NNW,337,0.0,2.0,98,0.00,,,0.00,Rainwise IP-100,2013-09-09 09:04:00,
2013-09-09 05:09:00,39.8,40.0,29.71,West,270,1.4,0.0,98,0.00,,,0.00,Rainwise IP-100,2013-09-09 09:09:00,
2013-09-09 05:14:00,40.1,40.0,29.72,West,270,0.0,2.0,98,0.00,,,0.00,Rainwise IP-100,2013-09-09 09:14:00,
2013-09-09 05:19:00,40.3,40.0,29.71,West,270,2.6,2.6,98,0.00,,,0.00,Rainwise IP-100,2013-09-09 09:19:00,
2013-09-09 05:24:00,40.5,40.0,29.71,West,270,1.6,2.0,98,0.00,,,0.00,Rainwise IP-100,2013-09-09 09:24:00,
2013-09-09 05:29:00,40.6,40.0,29.72,SW,225,4.0,4.0,98,0.00,,,0.00,Rainwise IP-100,2013-09-09 09:29:00,
2013-09-09 05:34:00,40.5,40.0,29.72,SW,225,4.9,4.9,98,0.00,,,0.00,Rainwise IP-100,2013-09-09 09:34:00,
2013-09-09 05:39:00,40.5,40.0,29.72,SW,225,3.0,5.0,98,0.00,,,0.00,Rainwise IP-100,2013-09-09 09:39:00,
2013-09-09 05:44:00,40.3,40.0,29.72,WSW,247,1.2,4.0,98,0.00,,,0.00,Rainwise IP-100,2013-09-09 09:44:00,
2013-09-09 05:49:00,40.1,40.0,29.72,WSW,247,2.6,5.0,98,0.00,,,0.00,Rainwise IP-100,2013-09-09 09:49:00,
2013-09-09 05:54:00,40.0,40.0,29.72,WSW,247,2.3,4.0,98,0.00,,,0.00,Rainwise IP-100,2013-09-09 09:54:00,
2013-09-09 05:59:00,39.9,40.0,29.72,WSW,247,1.4,4.0,98,0.00,,,0.00,Rainwise IP-100,2013-09-09 09:59:00,
2013-09-09 06:04:00,40.1,40.0,29.72,SW,225,0.0,3.0,98,0.00,,,0.00,Rainwise IP-100,2013-09-09 10:04:00,
2013-09-09 06:09:00,40.3,40.0,29.73,WSW,247,3.3,4.0,98,0.00,,,0.00,Rainwise IP-100,2013-09-09 10:09:00,
2013-09-09 06:14:00,40.2,40.0,29.73,WSW,247,4.0,5.0,98,0.00,,,0.00,Rainwise IP-100,2013-09-09 10:14:00,
2013-09-09 06:20:00,40.1,40.0,29.73,WSW,247,4.2,4.2,98,0.00,,,0.00,Rainwise IP-100,2013-09-09 10:20:00,
2013-09-09 06:25:00,40.1,40.0,29.73,SSW,202,1.6,4.0,98,0.00,,,0.00,Rainwise IP-100,2013-09-09 10:25:00,
2013-09-09 06:30:00,40.1,40.0,29.74,SSW,202,2.6,2.6,98,0.00,,,0.00,Rainwise IP-100,2013-09-09 10:30:00,
2013-09-09 06:35:00,40.0,40.0,29.74,SW,225,2.8,4.0,98,0.00,,,0.00,Rainwise IP-100,2013-09-09 10:35:00,
2013-09-09 06:40:00,40.0,40.0,29.74,SW,225,3.3,4.0,98,0.00,,,0.00,Rainwise IP-100,2013-09-09 10:40:00,
2013-09-09 06:45:00,40.1,39.0,29.74,WSW,247,3.5,4.0,97,0.00,,,0.00,Rainwise IP-100,2013-09-09 10:45:00,
2013-09-09 06:50:00,40.1,39.0,29.75,SW,225,2.3,5.0,97,0.00,,,0.00,Rainwise IP-100,2013-09-09 10:50:00,
2013-09-09 06:55:00,40.0,39.0,29.75,SSW,202,2.3,4.0,97,0.00,,,0.00,Rainwise IP-100,2013-09-09 10:55:00,
2013-09-09 07:00:00,39.8,39.0,29.75,SSW,202,1.6,3.0,97,0.00,,,0.00,Rainwise IP-100,2013-09-09 11:00:00,
2013-09-09 07:05:00,39.8,39.0,29.75,WSW,247,2.3,3.0,97,0.00,,,0.00,Rainwise IP-100,2013-09-09 11:05:00,
2013-09-09 07:10:00,39.8,39.0,29.75,WSW,247,0.0,3.0,97,0.00,,,0.00,Rainwise IP-100,2013-09-09 11:10:00,
2013-09-09 07:15:00,39.9,39.0,29.75,WSW,247,1.9,1.9,97,0.00,,,0.00,Rainwise IP-100,2013-09-09 11:15:00,
2013-09-09 07:20:00,40.0,39.0,29.76,SW,225,2.8,3.0,97,0.00,,,0.00,Rainwise IP-100,2013-09-09 11:20:00,
2013-09-09 07:25:00,40.1,40.0,29.76,WSW,247,2.8,5.0,98,0.00,,,0.00,Rainwise IP-100,2013-09-09 11:25:00,
2013-09-09 07:30:00,40.2,40.0,29.77,SW,225,2.8,4.0,98,0.00,,,0.00,Rainwise IP-100,2013-09-09 11:30:00,
2013-09-09 07:36:00,40.5,40.0,29.76,WSW,247,3.3,4.0,98,0.00,,,0.00,Rainwise IP-100,2013-09-09 11:36:00,
2013-09-09 07:41:00,40.5,40.0,29.77,SSW,202,3.3,5.0,98,0.00,,,0.00,Rainwise IP-100,2013-09-09 11:41:00,
2013-09-09 07:46:00,40.5,40.0,29.77,SSW,202,2.8,5.0,98,0.00,,,0.00,Rainwise IP-100,2013-09-09 11:46:00,
2013-09-09 07:51:00,40.6,40.0,29.77,SW,225,2.1,2.1,98,0.00,,,0.00,Rainwise IP-100,2013-09-09 11:51:00,
2013-09-09 07:56:00,40.9,40.0,29.78,SW,225,2.3,3.0,98,0.00,,,0.00,Rainwise IP-100,2013-09-09 11:56:00,
2013-09-09 08:01:00,41.1,40.0,29.77,SW,225,0.0,2.0,98,0.00,,,0.00,Rainwise IP-100,2013-09-09 12:01:00,
2013-09-09 08:06:00,41.3,40.0,29.77,SSW,202,1.6,2.0,97,0.00,,,0.00,Rainwise IP-100,2013-09-09 12:06:00,
2013-09-09 08:11:00,41.7,41.0,29.77,WSW,247,2.1,3.0,97,0.00,,,0.00,Rainwise IP-100,2013-09-09 12:11:00,
2013-09-09 08:16:00,42.1,41.0,29.77,SW,225,1.2,3.0,97,0.00,,,0.00,Rainwise IP-100,2013-09-09 12:16:00,
2013-09-09 08:21:00,42.6,42.0,29.77,West,270,3.0,4.0,96,0.00,,,0.00,Rainwise IP-100,2013-09-09 12:21:00,
2013-09-09 08:26:00,43.1,42.0,29.77,West,270,0.0,3.0,96,0.00,,,0.00,Rainwise IP-100,2013-09-09 12:26:00,
2013-09-09 08:31:00,43.9,43.0,29.77,WSW,247,4.7,4.7,96,0.00,,,0.00,Rainwise IP-100,2013-09-09 12:31:00,
2013-09-09 08:36:00,44.5,44.0,29.78,East,90,2.3,4.0,96,0.00,,,0.00,Rainwise IP-100,2013-09-09 12:36:00,
2013-09-09 08:41:00,45.3,44.0,29.78,SW,225,3.7,7.0,96,0.00,,,0.00,Rainwise IP-100,2013-09-09 12:41:00,
2013-09-09 08:46:00,45.9,45.0,29.78,South,180,3.7,6.0,96,0.00,,,0.00,Rainwise IP-100,2013-09-09 12:46:00,
2013-09-09 08:52:00,46.4,44.0,29.78,SSW,202,3.5,5.0,95,0.00,,,0.00,Rainwise IP-100,2013-09-09 12:52:00,
2013-09-09 08:57:00,46.7,45.0,29.77,SSW,202,3.3,7.0,93,0.00,,,0.00,Rainwise IP-100,2013-09-09 12:57:00,
2013-09-09 09:02:00,46.9,44.0,29.77,SSW,202,2.8,5.0,91,0.00,,,0.00,Rainwise IP-100,2013-09-09 13:02:00,
2013-09-09 09:07:00,47.5,45.0,29.77,South,180,4.9,5.0,92,0.00,,,0.00,Rainwise IP-100,2013-09-09 13:07:00,
2013-09-09 09:12:00,47.7,45.0,29.77,SSW,202,3.5,5.0,92,0.00,,,0.00,Rainwise IP-100,2013-09-09 13:12:00,
2013-09-09 09:17:00,47.5,45.0,29.78,SSE,157,4.0,5.0,90,0.00,,,0.00,Rainwise IP-100,2013-09-09 13:17:00,
2013-09-09 09:22:00,48.0,46.0,29.77,SW,225,1.2,5.0,90,0.00,,,0.00,Rainwise IP-100,2013-09-09 13:22:00,
2013-09-09 09:27:00,48.8,46.0,29.77,South,180,3.5,7.0,89,0.00,,,0.00,Rainwise IP-100,2013-09-09 13:27:00,
2013-09-09 09:32:00,49.1,46.0,29.77,SSW,202,4.2,8.0,88,0.00,,,0.00,Rainwise IP-100,2013-09-09 13:32:00,
2013-09-09 09:37:00,49.5,46.0,29.77,SW,225,6.3,8.0,85,0.00,,,0.00,Rainwise IP-100,2013-09-09 13:37:00,
2013-09-09 09:42:00,50.1,45.0,29.77,SW,225,4.4,7.0,84,0.00,,,0.00,Rainwise IP-100,2013-09-09 13:42:00,
2013-09-09 09:47:00,50.9,47.0,29.77,South,180,0.0,4.0,85,0.00,,,0.00,Rainwise IP-100,2013-09-09 13:47:00,
2013-09-09 09:52:00,51.7,48.0,29.77,SSE,157,1.4,4.0,87,0.00,,,0.00,Rainwise IP-100,2013-09-09 13:52:00,
2013-09-09 09:57:00,52.5,48.0,29.77,SSW,202,4.7,4.7,86,0.00,,,0.00,Rainwise IP-100,2013-09-09 13:57:00,
2013-09-09 10:02:00,53.1,48.0,29.77,South,180,0.0,5.0,84,0.00,,,0.00,Rainwise IP-100,2013-09-09 14:02:00,
2013-09-09 10:08:00,53.9,49.0,29.76,ESE,112,2.3,4.0,83,0.00,,,0.00,Rainwise IP-100,2013-09-09 14:08:00,
2013-09-09 10:13:00,54.7,49.0,29.76,SE,135,1.6,4.0,81,0.00,,,0.00,Rainwise IP-100,2013-09-09 14:13:00,
2013-09-09 10:18:00,55.0,48.0,29.76,SW,225,1.6,4.0,78,0.00,,,0.00,Rainwise IP-100,2013-09-09 14:18:00,
2013-09-09 10:23:00,55.7,47.0,29.76,South,180,0.0,6.0,74,0.00,,,0.00,Rainwise IP-100,2013-09-09 14:23:00,
2013-09-09 10:28:00,56.5,48.0,29.76,South,180,2.6,7.0,73,0.00,,,0.00,Rainwise IP-100,2013-09-09 14:28:00,
2013-09-09 10:33:00,56.8,47.0,29.75,SSE,157,0.0,5.0,71,0.00,,,0.00,Rainwise IP-100,2013-09-09 14:33:00,
2013-09-09 10:38:00,56.9,47.0,29.75,SW,225,3.5,7.0,69,0.00,,,0.00,Rainwise IP-100,2013-09-09 14:38:00,
2013-09-09 10:43:00,57.6,47.0,29.75,SW,225,0.0,5.0,67,0.00,,,0.00,Rainwise IP-100,2013-09-09 14:43:00,
2013-09-09 10:48:00,58.8,47.0,29.75,WSW,247,4.0,5.0,66,0.00,,,0.00,Rainwise IP-100,2013-09-09 14:48:00,
2013-09-09 10:53:00,59.1,47.0,29.75,SW,225,1.6,5.0,64,0.00,,,0.00,Rainwise IP-100,2013-09-09 14:53:00,
2013-09-09 10:58:00,59.4,46.0,29.75,ESE,112,2.3,5.0,61,0.00,,,0.00,Rainwise IP-100,2013-09-09 14:58:00,
2013-09-09 11:03:00,60.1,47.0,29.75,SE,135,1.4,5.0,61,0.00,,,0.00,Rainwise IP-100,2013-09-09 15:03:00,
2013-09-09 11:08:00,60.3,46.0,29.75,SW,225,1.6,5.0,59,0.00,,,0.00,Rainwise IP-100,2013-09-09 15:08:00,
2013-09-09 11:13:00,60.8,45.0,29.74,SE,135,1.9,5.0,57,0.00,,,0.00,Rainwise IP-100,2013-09-09 15:13:00,
2013-09-09 11:18:00,60.9,45.0,29.74,South,180,2.8,5.0,56,0.00,,,0.00,Rainwise IP-100,2013-09-09 15:18:00,
2013-09-09 11:24:00,61.1,44.0,29.74,South,180,7.7,8.0,54,0.00,,,0.00,Rainwise IP-100,2013-09-09 15:24:00,
2013-09-09 11:29:00,61.3,43.0,29.74,SW,225,5.6,9.0,52,0.00,,,0.00,Rainwise IP-100,2013-09-09 15:29:00,
2013-09-09 11:34:00,61.0,43.0,29.74,ESE,112,2.1,8.0,52,0.00,,,0.00,Rainwise IP-100,2013-09-09 15:34:00,
2013-09-09 11:39:00,61.0,43.0,29.73,SSW,202,2.1,8.0,52,0.00,,,0.00,Rainwise IP-100,2013-09-09 15:39:00,
2013-09-09 11:44:00,60.9,43.0,29.73,South,180,1.6,6.0,51,0.00,,,0.00,Rainwise IP-100,2013-09-09 15:44:00,
2013-09-09 11:49:00,61.4,44.0,29.72,SSW,202,1.9,10.0,52,0.00,,,0.00,Rainwise IP-100,2013-09-09 15:49:00,
2013-09-09 11:54:00,62.1,44.0,29.72,SE,135,4.2,5.0,52,0.00,,,0.00,Rainwise IP-100,2013-09-09 15:54:00,
2013-09-09 11:59:00,62.4,44.0,29.72,SSW,202,2.8,7.0,51,0.00,,,0.00,Rainwise IP-100,2013-09-09 15:59:00,
2013-09-09 12:04:00,62.9,44.0,29.72,SSW,202,5.4,8.0,50,0.00,,,0.00,Rainwise IP-100,2013-09-09 16:04:00,
2013-09-09 12:09:00,62.7,43.0,29.72,SW,225,2.3,7.0,49,0.00,,,0.00,Rainwise IP-100,2013-09-09 16:09:00,
2013-09-09 12:14:00,62.8,43.0,29.71,SSW,202,3.7,8.0,49,0.00,,,0.00,Rainwise IP-100,2013-09-09 16:14:00,
2013-09-09 12:19:00,63.8,44.0,29.71,SW,225,4.2,5.0,49,0.00,,,0.00,Rainwise IP-100,2013-09-09 16:19:00,
2013-09-09 12:24:00,63.9,44.0,29.71,SSW,202,6.3,8.0,48,0.00,,,0.00,Rainwise IP-100,2013-09-09 16:24:00,
2013-09-09 12:29:00,63.6,43.0,29.71,SSW,202,3.5,8.0,48,0.00,,,0.00,Rainwise IP-100,2013-09-09 16:29:00,
2013-09-09 12:34:00,63.5,43.0,29.70,South,180,6.1,7.0,48,0.00,,,0.00,Rainwise IP-100,2013-09-09 16:34:00,
2013-09-09 12:40:00,63.4,43.0,29.70,West,270,1.6,7.0,48,0.00,,,0.00,Rainwise IP-100,2013-09-09 16:40:00,
2013-09-09 12:45:00,63.6,43.0,29.70,South,180,4.0,8.0,48,0.00,,,0.00,Rainwise IP-100,2013-09-09 16:45:00,
2013-09-09 12:50:00,64.1,44.0,29.70,South,180,4.7,8.0,48,0.00,,,0.00,Rainwise IP-100,2013-09-09 16:50:00,
2013-09-09 12:55:00,64.2,44.0,29.70,SSW,202,5.4,6.0,48,0.00,,,0.00,Rainwise IP-100,2013-09-09 16:55:00,
2013-09-09 13:00:00,63.8,44.0,29.70,SW,225,5.6,7.0,49,0.00,,,0.00,Rainwise IP-100,2013-09-09 17:00:00,
2013-09-09 13:05:00,63.4,45.0,29.70,SSW,202,7.2,7.2,50,0.00,,,0.00,Rainwise IP-100,2013-09-09 17:05:00,
2013-09-09 13:10:00,63.5,44.0,29.70,SSE,157,1.4,7.0,49,0.00,,,0.00,Rainwise IP-100,2013-09-09 17:10:00,
2013-09-09 13:15:00,63.7,44.0,29.70,ESE,112,1.4,4.0,49,0.00,,,0.00,Rainwise IP-100,2013-09-09 17:15:00,
2013-09-09 13:20:00,64.1,45.0,29.70,SSE,157,2.1,7.0,50,0.00,,,0.00,Rainwise IP-100,2013-09-09 17:20:00,
2013-09-09 13:25:00,64.9,47.0,29.69,NNE,22,2.8,5.0,51,0.00,,,0.00,Rainwise IP-100,2013-09-09 17:25:00,
2013-09-09 13:30:00,65.4,47.0,29.69,SSE,157,6.8,6.8,50,0.00,,,0.00,Rainwise IP-100,2013-09-09 17:30:00,
2013-09-09 13:35:00,65.8,45.0,29.69,SSW,202,6.3,8.0,48,0.00,,,0.00,Rainwise IP-100,2013-09-09 17:35:00,
2013-09-09 13:40:00,66.3,46.0,29.68,SSE,157,1.4,6.0,48,0.00,,,0.00,Rainwise IP-100,2013-09-09 17:40:00,
2013-09-09 13:45:00,66.9,46.0,29.68,SE,135,1.2,9.0,47,0.00,,,0.00,Rainwise IP-100,2013-09-09 17:45:00,
2013-09-09 13:50:00,67.3,46.0,29.68,ESE,112,0.0,5.0,46,0.00,,,0.00,Rainwise IP-100,2013-09-09 17:50:00,
2013-09-09 13:56:00,67.7,46.0,29.68,South,180,1.6,6.0,46,0.00,,,0.00,Rainwise IP-100,2013-09-09 17:56:00,
2013-09-09 14:01:00,68.2,47.0,29.68,South,180,1.6,7.0,46,0.00,,,0.00,Rainwise IP-100,2013-09-09 18:01:00,
2013-09-09 14:06:00,68.6,47.0,29.68,SSE,157,1.4,9.0,45,0.00,,,0.00,Rainwise IP-100,2013-09-09 18:06:00,
2013-09-09 14:11:00,69.0,46.0,29.67,WSW,247,0.0,5.0,44,0.00,,,0.00,Rainwise IP-100,2013-09-09 18:11:00,
2013-09-09 14:16:00,69.5,47.0,29.68,SSE,157,2.1,4.0,45,0.00,,,0.00,Rainwise IP-100,2013-09-09 18:16:00,
2013-09-09 14:21:00,69.8,47.0,29.67,SSW,202,4.4,7.0,44,0.00,,,0.00,Rainwise IP-100,2013-09-09 18:21:00,
2013-09-09 14:26:00,69.6,46.0,29.67,SW,225,5.1,9.0,43,0.00,,,0.00,Rainwise IP-100,2013-09-09 18:26:00,
2013-09-09 14:31:00,69.1,46.0,29.67,WSW,247,6.3,9.0,44,0.00,,,0.00,Rainwise IP-100,2013-09-09 18:31:00,
2013-09-09 14:36:00,68.7,46.0,29.67,SW,225,3.7,7.0,44,0.00,,,0.00,Rainwise IP-100,2013-09-09 18:36:00,
2013-09-09 14:41:00,68.8,47.0,29.67,SSW,202,0.0,6.0,45,0.00,,,0.00,Rainwise IP-100,2013-09-09 18:41:00,
2013-09-09 14:46:00,69.1,47.0,29.67,South,180,5.8,10.0,46,0.00,,,0.00,Rainwise IP-100,2013-09-09 18:46:00,
2013-09-09 14:51:00,69.0,47.0,29.67,SSW,202,4.0,7.0,45,0.00,,,0.00,Rainwise IP-100,2013-09-09 18:51:00,
2013-09-09 14:56:00,68.8,47.0,29.66,SW,225,4.4,12.0,45,0.00,,,0.00,Rainwise IP-100,2013-09-09 18:56:00,
2013-09-09 15:01:00,68.5,47.0,29.66,SSE,157,6.5,12.0,45,0.00,,,0.00,Rainwise IP-100,2013-09-09 19:01:00,
2013-09-09 15:06:00,68.5,47.0,29.66,SW,225,4.0,9.0,45,0.00,,,0.00,Rainwise IP-100,2013-09-09 19:06:00,
2013-09-09 15:12:00,68.5,47.0,29.67,SSW,202,7.2,11.0,45,0.00,,,0.00,Rainwise IP-100,2013-09-09 19:12:00,
2013-09-09 15:17:00,68.6,47.0,29.66,South,180,4.2,9.0,46,0.00,,,0.00,Rainwise IP-100,2013-09-09 19:17:00,
2013-09-09 15:22:00,69.1,47.0,29.66,SSW,202,2.8,7.0,45,0.00,,,0.00,Rainwise IP-100,2013-09-09 19:22:00,
2013-09-09 15:27:00,69.4,47.0,29.65,WSW,247,5.8,8.0,45,0.00,,,0.00,Rainwise IP-100,2013-09-09 19:27:00,
2013-09-09 15:32:00,69.7,47.0,29.65,WSW,247,3.7,6.0,45,0.00,,,0.00,Rainwise IP-100,2013-09-09 19:32:00,
2013-09-09 15:37:00,69.7,47.0,29.65,SSW,202,8.2,11.0,44,0.00,,,0.00,Rainwise IP-100,2013-09-09 19:37:00,
2013-09-09 15:42:00,69.4,47.0,29.65,SSE,157,2.3,9.0,44,0.00,,,0.00,Rainwise IP-100,2013-09-09 19:42:00,
2013-09-09 15:47:00,68.9,47.0,29.64,WSW,247,6.8,12.0,45,0.00,,,0.00,Rainwise IP-100,2013-09-09 19:47:00,
2013-09-09 15:52:00,68.4,47.0,29.65,SSW,202,4.9,11.0,45,0.00,,,0.00,Rainwise IP-100,2013-09-09 19:52:00,
2013-09-09 15:57:00,67.9,47.0,29.65,WSW,247,8.2,9.0,46,0.00,,,0.00,Rainwise IP-100,2013-09-09 19:57:00,
2013-09-09 16:02:00,67.7,47.0,29.64,SSE,157,2.8,9.0,47,0.00,,,0.00,Rainwise IP-100,2013-09-09 20:02:00,
2013-09-09 16:07:00,67.7,47.0,29.64,WSW,247,2.8,9.0,48,0.00,,,0.00,Rainwise IP-100,2013-09-09 20:07:00,
2013-09-09 16:12:00,67.9,48.0,29.64,SW,225,7.2,10.0,49,0.00,,,0.00,Rainwise IP-100,2013-09-09 20:12:00,
2013-09-09 16:17:00,67.7,47.0,29.64,SW,225,7.2,9.0,49,0.00,,,0.00,Rainwise IP-100,2013-09-09 20:17:00,
2013-09-09 16:22:00,67.4,47.0,29.64,WSW,247,3.0,9.0,49,0.00,,,0.00,Rainwise IP-100,2013-09-09 20:22:00,
2013-09-09 16:28:00,67.6,47.0,29.64,SW,225,7.0,10.0,49,0.00,,,0.00,Rainwise IP-100,2013-09-09 20:28:00,
2013-09-09 16:33:00,67.7,47.0,29.64,SW,225,3.5,7.0,49,0.00,,,0.00,Rainwise IP-100,2013-09-09 20:33:00,
2013-09-09 16:38:00,67.7,47.0,29.64,SW,225,8.6,9.0,49,0.00,,,0.00,Rainwise IP-100,2013-09-09 20:38:00,
2013-09-09 16:43:00,67.7,47.0,29.64,SW,225,7.5,12.0,49,0.00,,,0.00,Rainwise IP-100,2013-09-09 20:43:00,
2013-09-09 16:48:00,67.5,47.0,29.64,South,180,4.7,11.0,49,0.00,,,0.00,Rainwise IP-100,2013-09-09 20:48:00,
2013-09-09 16:53:00,67.2,48.0,29.65,SSW,202,5.6,11.0,50,0.00,,,0.00,Rainwise IP-100,2013-09-09 20:53:00,
2013-09-09 16:58:00,66.9,48.0,29.64,South,180,6.8,8.0,50,0.00,,,0.00,Rainwise IP-100,2013-09-09 20:58:00,
2013-09-09 17:03:00,67.0,48.0,29.64,SW,225,5.1,9.0,51,0.00,,,0.00,Rainwise IP-100,2013-09-09 21:03:00,
2013-09-09 17:08:00,66.8,48.0,29.64,SSW,202,1.4,6.0,52,0.00,,,0.00,Rainwise IP-100,2013-09-09 21:08:00,
2013-09-09 17:13:00,66.6,49.0,29.65,SSW,202,6.3,6.3,53,0.00,,,0.00,Rainwise IP-100,2013-09-09 21:13:00,
2013-09-09 17:18:00,66.9,50.0,29.64,SW,225,7.0,7.0,53,0.00,,,0.00,Rainwise IP-100,2013-09-09 21:18:00,
2013-09-09 17:23:00,66.9,50.0,29.64,SW,225,4.0,7.0,53,0.00,,,0.00,Rainwise IP-100,2013-09-09 21:23:00,
2013-09-09 17:28:00,66.8,49.0,29.64,SW,225,4.0,5.0,53,0.00,,,0.00,Rainwise IP-100,2013-09-09 21:28:00,
2013-09-09 17:33:00,66.7,48.0,29.64,SSW,202,4.0,7.0,52,0.00,,,0.00,Rainwise IP-100,2013-09-09 21:33:00,
2013-09-09 17:38:00,66.6,49.0,29.64,SW,225,4.4,6.0,53,0.00,,,0.00,Rainwise IP-100,2013-09-09 21:38:00,
2013-09-09 17:44:00,66.5,49.0,29.64,SSW,202,7.7,7.7,53,0.00,,,0.00,Rainwise IP-100,2013-09-09 21:44:00,
2013-09-09 17:49:00,66.3,48.0,29.64,SSW,202,5.1,8.0,53,0.00,,,0.00,Rainwise IP-100,2013-09-09 21:49:00,
2013-09-09 17:54:00,65.8,48.0,29.64,SW,225,5.4,9.0,54,0.00,,,0.00,Rainwise IP-100,2013-09-09 21:54:00,
2013-09-09 17:59:00,65.6,49.0,29.63,SW,225,7.7,8.0,55,0.00,,,0.00,Rainwise IP-100,2013-09-09 21:59:00,
2013-09-09 18:04:00,65.4,49.0,29.64,WSW,247,2.3,10.0,55,0.00,,,0.00,Rainwise IP-100,2013-09-09 22:04:00,
2013-09-09 18:09:00,65.3,49.0,29.64,SSW,202,3.0,7.0,56,0.00,,,0.00,Rainwise IP-100,2013-09-09 22:09:00,
2013-09-09 18:14:00,65.0,49.0,29.64,WSW,247,4.9,6.0,57,0.00,,,0.00,Rainwise IP-100,2013-09-09 22:14:00,
2013-09-09 18:19:00,64.8,49.0,29.64,SW,225,6.3,8.0,58,0.00,,,0.00,Rainwise IP-100,2013-09-09 22:19:00,
2013-09-09 18:24:00,64.5,49.0,29.64,SW,225,4.7,8.0,58,0.00,,,0.00,Rainwise IP-100,2013-09-09 22:24:00,
2013-09-09 18:29:00,64.2,49.0,29.63,SW,225,4.9,9.0,58,0.00,,,0.00,Rainwise IP-100,2013-09-09 22:29:00,
2013-09-09 18:34:00,63.9,49.0,29.64,SW,225,5.1,6.0,59,0.00,,,0.00,Rainwise IP-100,2013-09-09 22:34:00,
2013-09-09 18:39:00,63.6,49.0,29.63,WSW,247,0.0,5.0,60,0.00,,,0.00,Rainwise IP-100,2013-09-09 22:39:00,
2013-09-09 18:44:00,63.2,49.0,29.63,SSW,202,0.0,2.0,61,0.00,,,0.00,Rainwise IP-100,2013-09-09 22:44:00,
2013-09-09 18:49:00,62.7,50.0,29.63,SSW,202,0.0,1.0,63,0.00,,,0.00,Rainwise IP-100,2013-09-09 22:49:00,
2013-09-09 18:54:00,62.1,50.0,29.63,SSW,202,0.0,1.0,65,0.00,,,0.00,Rainwise IP-100,2013-09-09 22:54:00,
2013-09-09 19:00:00,61.8,50.0,29.63,WSW,247,0.0,3.0,66,0.00,,,0.00,Rainwise IP-100,2013-09-09 23:00:00,
2013-09-09 19:05:00,61.5,50.0,29.64,WSW,247,0.0,1.0,67,0.00,,,0.00,Rainwise IP-100,2013-09-09 23:05:00,
2013-09-09 19:10:00,61.1,50.0,29.64,WSW,247,0.0,1.0,69,0.00,,,0.00,Rainwise IP-100,2013-09-09 23:10:00,
2013-09-09 19:15:00,60.8,50.0,29.64,WSW,247,0.0,2.0,69,0.00,,,0.00,Rainwise IP-100,2013-09-09 23:15:00,
2013-09-09 19:20:00,60.5,50.0,29.64,WSW,247,0.0,1.0,70,0.00,,,0.00,Rainwise IP-100,2013-09-09 23:20:00,
2013-09-09 19:25:00,60.1,50.0,29.65,WSW,247,0.0,1.0,71,0.00,,,0.00,Rainwise IP-100,2013-09-09 23:25:00,
2013-09-09 19:30:00,59.9,50.0,29.65,WSW,247,0.0,0.0,71,0.00,,,0.00,Rainwise IP-100,2013-09-09 23:30:00,
2013-09-09 19:35:00,59.8,50.0,29.65,WSW,247,0.0,1.0,71,0.00,,,0.00,Rainwise IP-100,2013-09-09 23:35:00,
2013-09-09 19:40:00,59.8,50.0,29.65,WSW,247,0.0,0.0,71,0.00,,,0.00,Rainwise IP-100,2013-09-09 23:40:00,
2013-09-09 19:45:00,59.5,50.0,29.65,WSW,247,0.0,0.0,72,0.00,,,0.00,Rainwise IP-100,2013-09-09 23:45:00,
2013-09-09 19:50:00,59.2,50.0,29.65,WSW,247,0.0,0.0,73,0.00,,,0.00,Rainwise IP-100,2013-09-09 23:50:00,
2013-09-09 19:55:00,59.0,50.0,29.65,WSW,247,0.0,0.0,73,0.00,,,0.00,Rainwise IP-100,2013-09-09 23:55:00,
2013-09-09 20:00:00,58.7,50.0,29.65,WSW,247,0.0,0.0,74,0.00,,,0.00,Rainwise IP-100,2013-09-10 00:00:00,
2013-09-09 20:05:00,58.5,51.0,29.65,WSW,247,1.9,2.0,75,0.00,,,0.00,Rainwise IP-100,2013-09-10 00:05:00,
2013-09-09 20:10:00,58.3,50.0,29.65,WSW,247,1.2,2.0,75,0.00,,,0.00,Rainwise IP-100,2013-09-10 00:10:00,
2013-09-09 20:16:00,57.9,50.0,29.65,WSW,247,1.2,2.0,76,0.00,,,0.00,Rainwise IP-100,2013-09-10 00:16:00,
2013-09-09 20:21:00,57.7,50.0,29.66,WSW,247,0.0,1.0,77,0.00,,,0.00,Rainwise IP-100,2013-09-10 00:21:00,
2013-09-09 20:26:00,57.6,50.0,29.66,WSW,247,0.0,1.0,77,0.00,,,0.00,Rainwise IP-100,2013-09-10 00:26:00,
2013-09-09 20:31:00,57.3,50.0,29.66,WSW,247,1.2,1.2,78,0.00,,,0.00,Rainwise IP-100,2013-09-10 00:31:00,
2013-09-09 20:36:00,57.2,50.0,29.66,WSW,247,0.0,1.0,79,0.00,,,0.00,Rainwise IP-100,2013-09-10 00:36:00,
2013-09-09 20:41:00,57.1,50.0,29.65,WSW,247,0.0,0.0,79,0.00,,,0.00,Rainwise IP-100,2013-09-10 00:41:00,
2013-09-09 20:46:00,56.9,50.0,29.66,WSW,247,0.0,0.0,79,0.00,,,0.00,Rainwise IP-100,2013-09-10 00:46:00,
2013-09-09 20:51:00,56.8,50.0,29.65,WSW,247,0.0,0.0,80,0.00,,,0.00,Rainwise IP-100,2013-09-10 00:51:00,
2013-09-09 20:56:00,56.5,50.0,29.66,WSW,247,0.0,0.0,80,0.00,,,0.00,Rainwise IP-100,2013-09-10 00:56:00,
2013-09-09 21:01:00,56.3,50.0,29.65,WSW,247,1.2,1.2,81,0.00,,,0.00,Rainwise IP-100,2013-09-10 01:01:00,
2013-09-09 21:06:00,56.3,50.0,29.65,WSW,247,0.0,1.0,81,0.00,,,0.00,Rainwise IP-100,2013-09-10 01:06:00,
2013-09-09 21:11:00,56.1,50.0,29.65,WSW,247,1.4,2.0,81,0.00,,,0.00,Rainwise IP-100,2013-09-10 01:11:00,
2013-09-09 21:16:00,55.9,50.0,29.65,WSW,247,0.0,1.0,82,0.00,,,0.00,Rainwise IP-100,2013-09-10 01:16:00,
2013-09-09 21:21:00,55.7,50.0,29.65,WSW,247,0.0,0.0,82,0.00,,,0.00,Rainwise IP-100,2013-09-10 01:21:00,
2013-09-09 21:26:00,55.5,50.0,29.65,WSW,247,0.0,0.0,82,0.00,,,0.00,Rainwise IP-100,2013-09-10 01:26:00,
2013-09-09 21:32:00,55.3,50.0,29.66,WSW,247,0.0,0.0,83,0.00,,,0.00,Rainwise IP-100,2013-09-10 01:32:00,
2013-09-09 21:37:00,55.2,50.0,29.66,WSW,247,0.0,0.0,83,0.00,,,0.00,Rainwise IP-100,2013-09-10 01:37:00,
2013-09-09 21:42:00,55.0,50.0,29.65,WSW,247,0.0,0.0,83,0.00,,,0.00,Rainwise IP-100,2013-09-10 01:42:00,
2013-09-09 21:47:00,54.8,50.0,29.65,WSW,247,0.0,0.0,84,0.00,,,0.00,Rainwise IP-100,2013-09-10 01:47:00,
2013-09-09 21:52:00,54.6,50.0,29.65,NNW,337,0.0,2.0,85,0.00,,,0.00,Rainwise IP-100,2013-09-10 01:52:00,
2013-09-09 21:57:00,54.5,50.0,29.65,NNW,337,1.2,2.0,85,0.00,,,0.00,Rainwise IP-100,2013-09-10 01:57:00,
2013-09-09 22:02:00,54.5,50.0,29.65,North,360,2.6,3.0,85,0.00,,,0.00,Rainwise IP-100,2013-09-10 02:02:00,
2013-09-09 22:07:00,54.4,50.0,29.65,North,360,0.0,2.0,86,0.00,,,0.00,Rainwise IP-100,2013-09-10 02:07:00,
2013-09-09 22:12:00,54.5,50.0,29.65,North,360,0.0,1.0,86,0.00,,,0.00,Rainwise IP-100,2013-09-10 02:12:00,
2013-09-09 22:17:00,54.5,50.0,29.65,North,360,0.0,0.0,86,0.00,,,0.00,Rainwise IP-100,2013-09-10 02:17:00,
2013-09-09 22:22:00,54.5,50.0,29.65,North,360,0.0,0.0,86,0.00,,,0.00,Rainwise IP-100,2013-09-10 02:22:00,
2013-09-09 22:27:00,54.5,50.0,29.65,SW,225,0.0,2.0,86,0.00,,,0.00,Rainwise IP-100,2013-09-10 02:27:00,
2013-09-09 22:32:00,54.3,50.0,29.65,SW,225,0.0,0.0,87,0.00,,,0.00,Rainwise IP-100,2013-09-10 02:32:00,
2013-09-09 22:37:00,54.1,50.0,29.65,SW,225,1.2,1.2,87,0.00,,,0.00,Rainwise IP-100,2013-09-10 02:37:00,
2013-09-09 22:42:00,54.1,50.0,29.65,SW,225,0.0,2.0,87,0.00,,,0.00,Rainwise IP-100,2013-09-10 02:42:00,
2013-09-09 22:48:00,54.1,50.0,29.65,SW,225,0.0,0.0,87,0.00,,,0.00,Rainwise IP-100,2013-09-10 02:48:00,
2013-09-09 22:53:00,53.9,50.0,29.65,SW,225,0.0,0.0,88,0.00,,,0.00,Rainwise IP-100,2013-09-10 02:53:00,
2013-09-09 22:58:00,53.6,50.0,29.65,SW,225,0.0,0.0,88,0.00,,,0.00,Rainwise IP-100,2013-09-10 02:58:00,
2013-09-09 23:03:00,53.4,50.0,29.65,SW,225,0.0,1.0,89,0.00,,,0.00,Rainwise IP-100,2013-09-10 03:03:00,
2013-09-09 23:08:00,53.3,50.0,29.65,SW,225,0.0,2.0,89,0.00,,,0.00,Rainwise IP-100,2013-09-10 03:08:00,
2013-09-09 23:13:00,53.4,50.0,29.65,SW,225,0.0,1.0,90,0.00,,,0.00,Rainwise IP-100,2013-09-10 03:13:00,
2013-09-09 23:18:00,53.1,50.0,29.64,SW,225,0.0,0.0,90,0.00,,,0.00,Rainwise IP-100,2013-09-10 03:18:00,
2013-09-09 23:23:00,52.8,50.0,29.64,SW,225,0.0,0.0,90,0.00,,,0.00,Rainwise IP-100,2013-09-10 03:23:00,
2013-09-09 23:28:00,52.7,50.0,29.65,SW,225,0.0,0.0,90,0.00,,,0.00,Rainwise IP-100,2013-09-10 03:28:00,
2013-09-09 23:33:00,52.8,50.0,29.64,SW,225,0.0,0.0,90,0.00,,,0.00,Rainwise IP-100,2013-09-10 03:33:00,
2013-09-09 23:38:00,52.9,50.0,29.63,SW,225,0.0,0.0,90,0.00,,,0.00,Rainwise IP-100,2013-09-10 03:38:00,
2013-09-09 23:43:00,52.8,50.0,29.64,SW,225,0.0,0.0,90,0.00,,,0.00,Rainwise IP-100,2013-09-10 03:43:00,
2013-09-09 23:48:00,52.5,50.0,29.64,SW,225,0.0,0.0,91,0.00,,,0.00,Rainwise IP-100,2013-09-10 03:48:00,
2013-09-09 23:53:00,52.2,49.0,29.64,SW,225,0.0,0.0,91,0.00,,,0.00,Rainwise IP-100,2013-09-10 03:53:00,
2013-09-09 23:58:00,52.1,49.0,29.63,SW,225,0.0,0.0,91,0.00,,,0.00,Rainwise IP-100,2013-09-10 03:58:00,